Wind_Speed
8 7 6 5 4 3 2 2 2 2 2 2 3 3 3 3 3 3 4 4 4 5 6 6 6 7 8 8 8 8 8 8 9 9 8 8 8 9 8 8 8 7 7
10 8 7 6 5 4 3 2 2 2 2 3 3 3 3 3 3 3 4 4 5 5 5 6 6 7 8 8 8 9 9 9 10 10 10 9 9 10 10 9 9 8 8
11 10 8 7 6 5 4 3 3 3 3 3 3 3 3 3 4 4 4 5 5 5 5 6 7 7 8 8 8 8 8 9 9 9 10 10 10 10 10 10 10 9 9
13 11 10 8 7 6 5 4 3 3 3 3 3 4 4 4 4 4 4 5 5 5 5 6 7 7 7 8 8 8 8 8 9 9 9 10 10 10 11 11 11 11 10
15 13 11 10 9 8 6 5 4 4 3 3 3 3 4 4 4 4 4 4 5 4 5 5 6 7 7 7 7 7 7 7 8 9 9 9 9 9 10 11 12 11 11
16 15 13 12 10 9 7 6 5 4 4 3 3 3 4 4 4 4 4 4 4 4 4 5 5 6 6 6 7 7 8 8 8 8 8 8 8 9 9 10 11 12 12
16 16 15 13 12 10 9 8 7 6 5 5 4 4 4 4 4 4 4 5 5 5 5 5 4 5 5 6 6 7 7 8 8 9 9 10 10 9 9 10 11 11 12
17 16 16 15 13 12 10 9 8 8 7 6 6 5 5 4 3 4 4 4 4 4 5 5 5 5 6 6 6 7 7 8 8 8 8 9 10 10 11 11 11 11 12
18 16 16 16 14 13 11 10 9 9 9 8 7 6 6 5 5 4 4 4 5 5 5 5 5 5 6 6 7 7 8 8 8 8 8 9 9 10 11 11 11 12 13
18 18 17 16 15 14 13 11 11 11 10 10 9 8 8 7 7 6 6 6 6 6 6 7 7 7 8 8 8 9 9 9 10 10 10 10 10 10 11 11 12 12 12
18 18 18 17 16 16 14 13 12 12 12 12 12 11 10 9 9 9 8 8 8 8 8 8 9 9 10 10 10 10 11 11 11 11 11 12 12 12 12 13 13 14 14
19 20 19 18 17 17 16 15 14 14 14 14 14 13 12 12 12 11 11 11 11 11 11 11 11 12 12 12 13 13 13 13 14 14 15 15 16 16 16 16 17 17 17
19 20 20 19 19 18 18 17 17 16 16 16 15 15 15 15 15 15 14 14 15 15 15 14 14 15 15 15 15 16 16 17 17 18 18 19 19 20 20 20 21 21 21
19 20 20 20 20 20 20 19 19 18 18 17 17 17 17 18 18 18 18 18 18 18 18 18 18 19 18 19 19 19 20 20 21 21 22 22 23 23 24 24 25 25 25
18 19 20 21 21 22 21 21 20 20 20 20 20 20 20 20 20 20 20 21 21 21 21 21 22 22 23 23 23 23 24 24 25 25 26 27 27 27 27 27 28 28 28
17 19 20 20 21 22 23 23 22 22 21 21 21 22 22 22 22 22 23 23 24 24 24 25 25 25 26 27 27 27 28 28 28 29 30 30 31 31 31 31 31 32 32
18 20 20 21 21 21 22 21 21 21 21 22 23 23 23 23 24 24 25 26 27 27 27 28 29 29 29 30 30 31 31 32 32 32 32 33 33 33 34 34 35 35 36
16 18 19 20 20 21 21 22 22 21 21 22 23 23 24 25 26 26 27 27 28 29 29 29 30 31 31 32 32 33 34 34 35 35 35 36 37 37 37 37 38 38 39
16 17 18 19 20 20 22 23 23 23 23 23 23 24 25 26 27 28 29 29 28 29 30 31 32 33 33 34 35 36 36 37 37 38 38 39 39 40 40 41 41 42 43
16 17 18 19 19 19 20 22 23 23 23 24 25 26 27 28 29 29 29 30 30 30 31 32 33 34 36 37 38 38 39 40 40 41 41 42 43 44 44 45 46 46 47
16 17 18 18 19 19 19 21 22 23 24 25 26 27 28 29 29 30 31 31 31 32 32 34 35 36 37 38 39 41 41 42 43 43 45 46 47 48 49 49 50 51 52
16 16 18 18 19 20 21 22 22 23 24 25 26 28 29 29 30 32 32 33 33 33 34 36 37 38 38 39 41 43 44 45 46 46 47 49 50 51 52 52 53 54 55
17 17 18 19 20 20 21 22 23 24 25 25 26 27 28 29 29 32 33 33 34 35 36 37 38 39 41 42 44 45 46 48 49 50 50 51 52 54 55 56 56 57 58
17 17 18 19 20 21 22 23 24 25 25 27 27 28 28 29 30 31 33 34 35 36 37 39 41 43 44 45 46 47 48 50 51 52 53 54 56 57 59 60 60 60 61
19 19 20 21 22 23 24 25 25 26 27 27 28 28 29 30 31 33 34 34 35 36 38 40 42 44 46 47 48 50 51 53 54 55 55 56 58 59 60 61 62 62 63
22 22 23 24 25 25 26 25 26 27 28 28 29 29 30 31 32 34 35 36 37 39 41 43 45 47 48 50 51 52 53 55 56 57 58 59 60 61 61 62 64 65 66
Wind_Direction
204 200 198 200 197 191 190 189 190 195 199 207 219 225 227 228 230 236 238 238 239 241 241 244 241 238 240 241 240 243 248 247 249 251 251 253 255 255 254 258 261 262 264
209 204 203 207 209 212 220 222 224 217 209 214 226 233 237 240 239 238 241 245 244 246 248 252 249 243 242 244 247 250 253 252 253 256 255 254 257 258 256 258 261 263 263
212 209 208 210 216 219 229 237 240 236 227 220 229 239 240 241 243 237 238 242 247 251 255 259 258 252 247 247 252 254 255 256 255 257 256 257 259 260 259 259 260 262 262
214 213 214 215 220 221 225 234 238 233 224 221 228 236 237 242 249 249 242 245 251 254 256 258 256 253 253 252 253 258 260 258 261 261 260 260 263 263 260 258 258 259 262
218 218 218 219 223 225 227 228 233 227 221 220 225 231 235 242 250 254 251 251 252 254 258 257 250 248 251 252 255 259 265 268 266 260 257 260 264 267 264 262 260 260 263
221 221 221 222 223 224 226 228 231 229 227 223 223 225 232 242 249 251 255 252 248 250 254 253 249 249 250 255 257 262 267 277 276 264 259 264 268 270 267 266 265 264 264
221 220 221 222 222 224 228 230 229 231 235 232 230 230 234 244 251 253 254 252 247 246 249 246 250 248 250 257 262 264 269 277 280 273 263 262 268 272 272 271 271 270 270
222 222 223 223 224 225 227 229 231 235 237 233 231 234 239 247 252 250 251 245 241 244 241 243 252 261 265 266 267 271 272 275 276 281 274 270 270 273 275 274 273 273 273
224 225 225 224 225 225 227 231 234 235 237 233 232 234 239 244 249 252 252 244 243 247 245 251 254 259 267 270 273 276 277 277 278 282 283 278 278 276 275 278 277 277 275
225 224 223 223 225 227 229 234 238 239 237 235 236 237 240 244 247 251 254 252 249 251 253 255 256 259 265 269 272 274 277 278 278 279 280 283 282 278 276 278 278 277 276
230 227 225 226 228 231 234 236 239 240 239 238 239 241 241 245 249 252 254 254 253 254 258 261 263 265 267 269 272 274 275 276 277 277 278 279 280 281 279 279 279 278 278
231 229 228 229 232 235 237 237 239 240 241 242 242 244 244 247 251 252 253 254 256 258 261 264 267 269 272 273 275 275 274 275 275 275 275 276 276 276 277 277 277 276 276
234 230 230 232 234 236 237 237 239 240 243 244 245 247 248 250 252 254 255 257 259 260 262 265 267 269 271 273 275 276 276 276 275 275 275 275 275 275 276 276 276 276 276
236 233 232 235 235 236 238 239 242 243 244 246 247 249 251 252 254 256 258 261 262 263 264 265 267 270 271 273 274 275 275 275 276 275 275 276 276 275 275 276 276 276 276
238 235 235 237 237 239 241 243 244 245 246 248 250 252 253 254 256 258 260 261 262 264 265 266 268 270 271 273 275 276 276 276 277 276 276 276 276 276 276 276 276 276 276
238 234 236 238 238 240 243 245 246 247 248 250 252 255 255 257 258 259 260 262 263 265 266 267 269 270 273 274 275 276 277 277 277 277 277 276 276 276 276 275 276 276 276
238 236 239 240 241 243 244 245 247 248 250 251 253 255 257 258 259 260 262 265 266 267 268 269 270 272 273 274 275 276 277 277 277 276 276 277 277 277 277 276 276 276 276
240 239 240 243 245 244 243 246 249 249 251 253 254 255 257 259 260 261 264 266 267 268 269 270 271 273 274 276 277 277 278 277 277 277 277 277 276 277 276 276 276 276 276
242 242 243 244 248 247 245 248 252 252 252 255 256 258 259 260 262 264 266 268 269 269 270 271 273 274 275 276 277 278 279 279 278 277 277 278 277 277 276 276 277 277 277
250 248 247 246 247 248 248 250 253 255 257 257 260 262 262 262 263 265 268 269 270 272 273 274 274 275 276 276 278 280 280 280 279 279 279 278 278 277 277 277 277 277 277
257 252 250 247 248 250 252 254 256 259 261 262 263 264 265 264 264 266 269 271 271 272 273 274 276 276 277 278 278 279 280 280 280 280 280 280 279 278 278 277 277 278 278
259 257 253 251 253 254 256 257 258 262 264 265 266 267 268 267 267 269 269 271 272 273 274 276 276 276 278 279 279 279 280 281 281 281 281 281 281 281 281 280 279 278 277
261 258 257 256 258 258 259 261 262 264 266 269 270 271 272 271 272 273 273 274 276 276 277 277 278 279 280 281 282 282 282 282 283 283 282 281 281 282 282 281 281 280 280
263 262 263 264 263 264 262 262 265 267 270 271 273 275 276 276 275 277 278 279 279 279 279 280 280 281 282 283 283 283 283 284 284 284 283 283 283 283 283 282 282 282 281
264 267 267 267 267 267 267 266 268 270 272 273 275 276 277 277 278 281 283 283 283 283 283 283 283 284 285 285 285 285 285 286 286 285 285 284 284 283 283 283 283 283 282
266 267 268 271 270 269 269 269 271 273 275 277 279 279 280 281 282 283 284 284 285 285 286 286 286 286 286 286 286 287 287 286 286 285 285 285 285 285 284 284 284 284 284
Height
5892 5893 5893 5894 5894 5894 5895 5895 5895 5895 5896 5896 5896 5896 5897 5897 5897 5897 5897 5897 5897 5897 5897 5898 5898 5898 5899 5899 5900 5900 5901 5901 5902 5902 5903 5903 5903 5904 5904 5904 5905 5905 5905
5891 5892 5893 5893 5894 5894 5894 5895 5895 5895 5895 5895 5895 5896 5896 5896 5896 5896 5896 5896 5896 5896 5897 5897 5897 5897 5898 5898 5898 5899 5899 5900 5900 5901 5901 5901 5902 5902 5902 5903 5903 5903 5903
5889 5890 5892 5892 5893 5893 5894 5894 5894 5894 5894 5895 5895 5895 5895 5895 5895 5895 5895 5895 5895 5895 5896 5896 5896 5896 5896 5897 5897 5897 5898 5898 5898 5899 5899 5899 5900 5900 5900 5901 5901 5901 5901
5888 5889 5890 5891 5892 5892 5893 5893 5893 5893 5894 5894 5894 5894 5894 5894 5894 5894 5894 5894 5894 5894 5894 5895 5895 5895 5895 5895 5896 5896 5896 5897 5897 5897 5897 5897 5897 5897 5898 5898 5898 5899 5899
5886 5887 5889 5890 5891 5891 5892 5892 5892 5892 5893 5893 5893 5894 5894 5894 5894 5894 5893 5893 5893 5893 5893 5893 5893 5894 5894 5894 5895 5895 5895 5895 5895 5895 5895 5895 5895 5895 5895 5895 5896 5896 5896
5883 5885 5887 5888 5889 5890 5891 5891 5891 5892 5892 5892 5892 5893 5893 5893 5893 5893 5893 5892 5892 5893 5893 5892 5892 5893 5893 5893 5893 5893 5893 5893 5893 5893 5893 5893 5893 5893 5893 5893 5893 5893 5894
5881 5883 5885 5886 5887 5888 5889 5889 5890 5891 5891 5891 5892 5892 5892 5892 5892 5892 5892 5891 5892 5892 5892 5892 5892 5892 5891 5892 5892 5892 5892 5892 5891 5891 5891 5891 5891 5891 5891 5891 5891 5891 5891
5878 5880 5882 5884 5885 5886 5887 5888 5889 5890 5890 5891 5891 5891 5891 5892 5891 5891 5891 5891 5891 5891 5891 5891 5891 5891 5891 5891 5890 5890 5890 5890 5890 5889 5889 5889 5889 5889 5888 5888 5888 5888 5888
5876 5877 5880 5881 5883 5884 5885 5886 5887 5888 5889 5889 5890 5890 5890 5891 5891 5891 5890 5890 5890 5890 5890 5890 5890 5890 5889 5889 5889 5889 5889 5889 5888 5888 5887 5887 5887 5887 5886 5886 5886 5886 5885
5873 5875 5877 5879 5880 5882 5883 5884 5885 5886 5887 5888 5888 5888 5889 5889 5889 5890 5890 5889 5889 5889 5889 5889 5889 5889 5888 5888 5888 5887 5887 5887 5887 5886 5886 5885 5885 5884 5884 5884 5883 5883 5882
5870 5872 5874 5876 5878 5879 5881 5881 5882 5883 5885 5886 5886 5887 5887 5887 5887 5888 5888 5888 5888 5888 5888 5888 5887 5887 5887 5886 5886 5886 5885 5885 5885 5884 5883 5883 5882 5882 5881 5881 5880 5880 5879
5866 5869 5871 5872 5874 5876 5877 5879 5880 5881 5882 5883 5884 5884 5885 5885 5885 5886 5886 5886 5886 5886 5886 5885 5885 5885 5884 5884 5883 5883 5883 5882 5882 5881 5880 5880 5879 5878 5878 5877 5877 5876 5876
5863 5865 5867 5869 5870 5872 5874 5875 5876 5878 5879 5880 5881 5881 5882 5882 5882 5883 5883 5883 5883 5883 5883 5883 5882 5882 5881 5881 5880 5880 5879 5879 5878 5877 5876 5876 5875 5874 5874 5873 5872 5872 5871
5859 5861 5863 5865 5866 5868 5870 5871 5872 5874 5875 5876 5877 5877 5878 5878 5879 5879 5879 5879 5879 5879 5879 5879 5878 5878 5877 5877 5876 5875 5875 5874 5873 5873 5872 5871 5870 5869 5868 5868 5867 5866 5865
5854 5856 5858 5860 5862 5864 5866 5867 5868 5869 5871 5872 5872 5873 5874 5874 5874 5875 5875 5875 5875 5875 5875 5874 5874 5873 5872 5872 5871 5870 5869 5869 5868 5867 5866 5865 5864 5863 5862 5861 5860 5859 5858
5851 5852 5854 5856 5858 5859 5861 5862 5863 5865 5866 5867 5867 5868 5868 5869 5869 5870 5870 5870 5869 5869 5868 5868 5868 5867 5866 5866 5865 5864 5863 5862 5861 5860 5859 5858 5857 5856 5855 5854 5853 5852 5851
5847 5848 5850 5851 5853 5855 5856 5858 5859 5860 5861 5862 5862 5863 5863 5864 5864 5864 5864 5864 5863 5863 5862 5861 5861 5860 5859 5859 5857 5856 5855 5854 5853 5852 5851 5850 5848 5847 5846 5845 5844 5842 5841
5843 5844 5846 5847 5849 5850 5852 5853 5854 5855 5856 5856 5857 5857 5857 5858 5858 5857 5857 5857 5856 5856 5855 5855 5854 5853 5852 5851 5850 5848 5847 5846 5844 5843 5842 5841 5839 5838 5836 5835 5834 5833 5831
5840 5841 5842 5843 5844 5845 5847 5848 5849 5850 5850 5851 5851 5851 5851 5851 5851 5851 5850 5850 5849 5849 5848 5847 5846 5845 5844 5842 5841 5839 5838 5836 5835 5833 5832 5830 5829 5827 5826 5825 5823 5821 5820
5836 5836 5838 5839 5840 5840 5841 5843 5844 5844 5844 5845 5845 5844 5844 5844 5844 5844 5843 5843 5842 5841 5840 5839 5838 5836 5835 5833 5832 5830 5829 5827 5825 5823 5822 5820 5818 5816 5814 5813 5811 5809 5808
5833 5833 5833 5834 5835 5836 5837 5838 5838 5838 5838 5838 5838 5838 5837 5837 5837 5836 5836 5835 5834 5833 5832 5830 5829 5827 5826 5824 5822 5820 5818 5816 5814 5812 5810 5807 5805 5803 5801 5799 5797 5795 5793
5829 5829 5829 5830 5831 5832 5832 5832 5832 5832 5832 5832 5831 5831 5830 5830 5829 5829 5828 5827 5826 5825 5823 5822 5820 5818 5816 5814 5812 5810 5807 5805 5803 5801 5798 5794 5792 5789 5786 5784 5782 5780 5777
5825 5825 5825 5826 5826 5827 5827 5827 5826 5826 5826 5825 5825 5824 5823 5822 5822 5821 5820 5819 5817 5815 5814 5812 5810 5808 5806 5804 5801 5798 5795 5793 5790 5787 5784 5781 5778 5774 5771 5768 5766 5763 5760
5821 5821 5822 5822 5821 5822 5821 5821 5821 5820 5820 5819 5818 5817 5816 5815 5814 5813 5811 5809 5808 5806 5804 5802 5800 5797 5795 5792 5789 5786 5783 5779 5776 5772 5770 5766 5762 5759 5755 5751 5748 5745 5742
5816 5816 5816 5816 5816 5816 5816 5815 5815 5814 5813 5812 5811 5810 5809 5807 5806 5804 5802 5800 5798 5796 5794 5791 5788 5785 5782 5779 5775 5772 5769 5765 5761 5757 5754 5750 5746 5742 5738 5733 5729 5727 5723
5811 5811 5811 5811 5810 5810 5809 5809 5808 5807 5806 5805 5804 5802 5800 5799 5797 5795 5793 5790 5788 5785 5782 5779 5776 5773 5769 5766 5762 5758 5754 5750 5745 5741 5737 5733 5728 5724 5720 5715 5710 5706 5703